Simultaneous Nadir Overpasses (SNOs) Predictions

Prediction of SNOs between NOAA-15 and METOP-C Satellite Orbit:

Table of predicted SNOs for the next 14.0 days since TLE Epoch: 11/30/2019
Index Date (NOAA-15) Time (NOAA-15) Lat,Lon (NOAA-15) SZA (NOAA-15 ) Date (METOP-C) Time (METOP-C) Lat,Lon (METOP-C) SZA (METOP-C ) Distance(km) Time Diff (sec)
1 12/14/2019 15:30:08 80.88, -18.35 105.67 12/14/2019 15:28:58 80.88, -18.51 105.62 2.74 70
2 12/14/2019 16:20:40 -80.89, 148.88 74.34 12/14/2019 16:19:38 -80.89, 148.94 74.37 1.16 62
3 12/14/2019 17:11:11 80.89, -43.76 105.66 12/14/2019 17:10:19 80.89, -43.65 105.65 1.87 52




NCC Satellite Simultaneous Nadir Overpasses (SNOs) Prediction Service
